This is the latest recevied weather packets stored in our database for station/object KI4BIY. If no packets are shown the sender has not sent any weather packets the latest 10 day(s).
| Time | Temp. | Humidity | Pressure | Rain* | Wind** | Luminosity | Snow |
|---|---|---|---|---|---|---|---|
| 1778202216 | 13.89° C | 79% | 1014.8 hPa | 0 mm | - | 0 W/m² | - |
| 1778201913 | 14.44° C | 78% | 1015 hPa | 0 mm | - | 0 W/m² | - |
| 1778201610 | 14.44° C | 73% | 1014.9 hPa | 0 mm | - | 0 W/m² | - |
| 1778201306 | 15° C | 71% | 1014.9 hPa | 0 mm | - | 0 W/m² | - |
| 1778201002 | 15° C | 71% | 1015 hPa | 0 mm | - | 3 W/m² | - |
| 1778200699 | 15.56° C | 70% | 1015.1 hPa | 0 mm | - | 2 W/m² | - |
| 1778200396 | 15.56° C | 69% | 1014.7 hPa | 0 mm | - | 3 W/m² | - |
| 1778200093 | 15.56° C | 65% | 1015 hPa | 0 mm | - | 6 W/m² | - |
| 1778199790 | 15.56° C | 66% | 1014.9 hPa | 0 mm | - | 6 W/m² | - |
| 1778199486 | 16.11° C | 64% | 1014.8 hPa | 0 mm | - | 7 W/m² | - |
| 1778199182 | 16.11° C | 63% | 1014.9 hPa | 0 mm | - | 6 W/m² | - |
| 1778198878 | 16.11° C | 61% | 1014.5 hPa | 0 mm | - | 8 W/m² | - |
| 1778198575 | 16.11° C | 62% | 1014.7 hPa | 0 mm | - | 10 W/m² | - |
| 1778198271 | 16.67° C | 65% | 1014.5 hPa | 0 mm | - | 11 W/m² | - |
| 1778197969 | 16.67° C | 62% | 1014.5 hPa | 0 mm | - | 13 W/m² | - |
| 1778197666 | 16.67° C | 59% | 1014.7 hPa | 0 mm | - | 14 W/m² | - |
| 1778197362 | 16.67° C | 59% | 1014.6 hPa | 0 mm | - | 15 W/m² | - |
| 1778197059 | 16.67° C | 58% | 1014.7 hPa | 0 mm | - | 16 W/m² | - |
| 1778196757 | 17.22° C | 60% | 1014.6 hPa | 0 mm | - | 13 W/m² | - |
| 1778196454 | 17.22° C | 59% | 1014.6 hPa | 0 mm | - | 14 W/m² | - |
| 1778196151 | 17.22° C | 62% | 1014.8 hPa | 0 mm | - | 15 W/m² | - |
| 1778195847 | 17.22° C | 60% | 1014.7 hPa | 0 mm | - | 16 W/m² | - |
| 1778195544 | 17.22° C | 58% | 1014.9 hPa | 0 mm | - | 16 W/m² | - |
| 1778195241 | 17.22° C | 57% | 1014.7 hPa | 0 mm | - | 17 W/m² | - |
| 1778194939 | 17.78° C | 57% | 1014.7 hPa | 0 mm | - | 17 W/m² | - |
* Rain latest hour (hover to see other rain measurements)
** Current wind speed in m/s (hover to see current wind gust speed)